CAS-2T
1 41847U 16066G 21112.40076700 .00000182 00000-0 37277-4 0 9995
2 41847 98.6068 171.2782 0365808 27.8734 334.1532 14.38177629233829
EO-88
1 42017U 17008BX 21112.76775347 .00002737 00000-0 10320-3 0 9991
2 42017 97.3199 181.3629 0004564 317.9460 42.1429 15.27899204232751
CAS-4B
1 42759U 17034B 21112.93309377 .00000567 00000-0 47460-4 0 9993
2 42759 43.0164 126.3017 0008500 184.9455 250.1613 15.10164318212751
CAS-4A
1 42761U 17034D 21112.92703117 .00000548 00000-0 46204-4 0 9999
2 42761 43.0167 125.4277 0009139 186.2404 248.1700 15.10245434212756
NIUSat
1 42766U 17036B 21112.71866103 .00001779 00000-0 79354-4 0 9997
2 42766 97.2565 160.6147 0015449 19.1240 341.0573 15.22564197212736
Aalto 1
1 42775U 17036L 21112.42722863 .00001540 00000-0 69172-4 0 9992
2 42775 97.2537 160.6088 0013991 19.9056 340.2724 15.22543621212673
URSA MAIOR
1 42776U 17036M 21112.43910844 .00001659 00000-0 73752-4 0 9992
2 42776 97.2551 161.0546 0013758 19.4272 340.7486 15.22793142212697
Max Valier Sat
1 42778U 17036P 21112.41094409 .00001893 00000-0 82222-4 0 9994
2 42778 97.2614 162.8458 0012340 23.0598 337.1191 15.23440235212751
Pegasus
1 42784U 17036V 21112.18000504 .00002287 00000-0 96456-4 0 9990
2 42784 97.2568 163.0603 0012089 27.0539 333.1326 15.24229410212780
NUDATSat
1 42787U 17036Y 21112.58369669 .00004696 00000-0 18476-3 0 9998
2 42787 97.2598 165.6752 0011475 20.0334 340.1349 15.26061146212812
SUCHAI 1
1 42788U 17036Z 21112.66680496 .00002645 00000-0 10870-3 0 9994
2 42788 97.2577 164.4488 0011444 23.2723 336.9031 15.24979786212981
SKCUBE
1 42789U 17036AA 21112.42412567 .00002518 00000-0 10436-3 0 9998
2 42789 97.2571 163.9523 0011411 24.7462 335.4322 15.24733912212852
VZLUSAT 1
1 42790U 17036AB 21112.44579987 .00003131 00000-0 12426-3 0 9995
2 42790 97.2603 165.5319 0010565 21.4329 338.7350 15.26034784212946
VENTA 1
1 42791U 17036AC 21112.20663139 .00002535 00000-0 10520-3 0 9993
2 42791 97.2568 163.7618 0011153 26.2211 333.9589 15.24694910212814
Robusta 1B
1 42792U 17036AD 21112.66398856 .00002436 00000-0 10038-3 0 9999
2 42792 97.2573 164.5425 0010962 24.3554 335.8200 15.24965904212929
D-SAT
1 42794U 17036AF 21112.74461994 .00000790 00000-0 72722-4 0 9994
2 42794 97.4659 135.5834 0126937 52.6170 308.6528 14.91522324208797
TechnoSat
1 42829U 17042E 21112.69548246 .00000167 00000-0 22014-4 0 9997
2 42829 97.4774 345.1708 0013585 339.8242 20.2438 14.91258816205377
QIKCOM-1
1 42983U 98067NF 21112.76060995 .00007879 00000-0 81176-4 0 9993
2 42983 51.6364 182.1611 0003058 126.2348 233.8931 15.65901293198676
AO-91
1 43017U 17073E 21112.26765081 .00000898 00000-0 73673-4 0 9990
2 43017 97.7106 18.4773 0256494 123.4960 239.1048 14.79441688184813
EcAMSat
1 43019U 98067NG 21112.57442173 .00025346 00000-0 16015-3 0 9993
2 43019 51.6355 153.2286 0002508 86.8473 273.2814 15.76438473281367
PICSAT
1 43132U 18004X 21112.50940799 .00002505 00000-0 10122-3 0 9997
2 43132 97.4114 187.5561 0010343 53.1375 307.0810 15.25641116182157
AO-92
1 43137U 18004AC 21112.76256083 .00001983 00000-0 82104-4 0 9995
2 43137 97.4093 187.3614 0010132 55.0086 305.2102 15.25074096182163
TianYi 2
1 43155U 18008A 21112.88732484 .00001683 00000-0 10051-3 0 9994
2 43155 97.4058 179.5173 0017731 155.2305 315.3742 15.12306179179676
Zhou Enlai
1 43156U 18008B 21112.87408512 .00002182 00000-0 13080-3 0 9996
2 43156 97.4109 179.3399 0015009 154.3497 319.0285 15.11905486179612
TianYi 6
1 43158U 18008D 21112.79976007 .00002153 00000-0 13111-3 0 9991
2 43158 97.4055 177.9205 0013844 153.9068 342.2273 15.11352862179538
S-Net D
1 43186U 18014G 21112.74559223 .00000582 00000-0 55532-4 0 9999
2 43186 97.6803 21.3248 0009481 268.0486 91.9650 14.97021998175961
S-Net B
1 43187U 18014H 21112.47812806 .00000560 00000-0 53641-4 0 9994
2 43187 97.6799 21.0306 0009485 269.0160 90.9975 14.97021114175927
S-Net A
1 43188U 18014J 21112.74549769 .00000575 00000-0 54969-4 0 9990
2 43188 97.6803 21.3355 0009473 268.0479 91.9658 14.97020246175968
S-Net C
1 43189U 18014K 21112.54545637 .00000580 00000-0 55379-4 0 9991
2 43189 97.6799 21.0898 0009462 268.6820 91.3318 14.97020098174484
FMN 1
1 43192U 18015A 21112.94403230 .00006284 00000-0 23423-3 0 9993
2 43192 97.4789 248.0802 0016184 80.1159 41.0633 15.27679745179112
Shaonian Xing
1 43199U 18015H 21112.88518725 .00004537 00000-0 17192-3 0 9994
2 43199 97.4574 245.3800 0017580 89.2358 30.1258 15.27268455179160
SurfSat
1 43614U 18070B 21112.47136799 .00005674 00000-0 13476-3 0 9993
2 43614 93.0251 282.7061 0012775 211.8009 148.2476 15.41630893146046
CP-7 DAVE
1 43615U 18070C 21112.47851401 .00005514 00000-0 13213-3 0 9990
2 43615 93.0255 282.6719 0012961 211.9420 148.1051 15.41359407146031
ELFIN-B
1 43616U 18070D 21112.47170150 .00008145 00000-0 17876-3 0 9998
2 43616 93.0212 282.7959 0013034 210.4941 149.5559 15.43965843146134
ELFIN-A
1 43617U 18070E 21112.44750419 .00008494 00000-0 18390-3 0 9997
2 43617 93.0261 283.5796 0012542 206.6467 153.4147 15.44374173146149
STARS-Me Mother
1 43640U 98067PQ 21112.42862572 .00109352 00000-0 37798-3 0 9997
2 43640 51.6267 163.6710 0004727 35.0394 325.0922 15.88674077145369
CubeBel 1
1 43666U 18083E 21112.92679463 .00002745 00000-0 13348-3 0 9998
2 43666 97.4610 141.9846 0014996 9.7639 109.9042 15.19173689137589
Changshagaoxin
1 43669U 18083H 21112.87333424 .00002226 00000-0 11275-3 0 9990
2 43669 97.4522 139.1782 0010809 8.3319 116.4948 15.17987866137453
Ten-Koh
1 43677U 18084G 21112.33067417 .00000259 00000-0 32462-4 0 9993
2 43677 97.9113 235.2529 0015155 215.4715 144.5496 14.90440801134944
PO-101
1 43678U 18084H 21112.84683850 .00000616 00000-0 66860-4 0 9991
2 43678 97.9143 237.8676 0008635 228.8709 131.1777 14.91737843135148
IRVINE 01
1 43693U 18088D 21112.79313758 .00005491 00000-0 21705-3 0 9997
2 43693 85.0358 231.9250 0015419 224.4949 135.5057 15.25132823135953
QO-100
1 43700U 18090A 21112.72148108 .00000141 00000-0 00000 0 0 9995
2 43700 0.0181 243.8945 0001849 160.7355 91.8602 1.00255040 9057
Reaktor Hello World
1 43743U 18096AA 21112.74531588 .00002634 00000-0 97020-4 0 9990
2 43743 97.3878 190.6846 0018925 112.4256 247.8990 15.28573386133627
MinXSS-2
1 43758U 18099A 21112.45324512 .00000371 00000-0 38143-4 0 9991
2 43758 97.6696 184.8000 0014454 232.7375 127.2529 14.95992271130146
AO-95
1 43770U 18099N 21112.43975981 .00000129 00000-0 16911-4 0 9995
2 43770 97.6684 183.8556 0013185 242.1548 117.8337 14.95269848130081
RANGE-B
1 43772U 18099Q 21112.74679736 .00001205 00000-0 11370-3 0 9999
2 43772 97.6766 185.0661 0013014 225.8452 134.1700 14.95556662130133
RANGE-A
1 43773U 18099R 21112.44139929 -.00000025 00000-0 29089-5 0 9990
2 43773 97.6618 183.2355 0012417 227.8478 132.1689 14.95175626130070
MOVE-II
1 43780U 18099Y 21112.49023858 .00001135 00000-0 10665-3 0 9996
2 43780 97.6701 184.3764 0012018 237.3581 122.6481 14.95843917130108
SNUSat 2
1 43782U 18099AA 21112.48160697 .00000985 00000-0 93977-4 0 9990
2 43782 97.6683 184.2180 0011579 225.3365 134.6913 14.95516944130108
SnugLite
1 43784U 18099AC 21112.49458412 .00000466 00000-0 47014-4 0 9993
2 43784 97.6648 183.9722 0013701 235.0814 124.9120 14.95637913130129
ITASat 1
1 43786U 18099AE 21112.43700167 .00000083 00000-0 12634-4 0 9991
2 43786 97.6703 184.4919 0013886 234.8947 125.0973 14.95572107130115
EAGLET 1
1 43790U 18099AJ 21112.48477436 .00000764 00000-0 73284-4 0 9995
2 43790 97.6693 184.9280 0012012 237.9640 122.0415 14.95935910129849
